KJ5EHN Weather Reports


time (UTC)temp
C
wind
direction
speed
KPH
gust
KPH
rain 1hr
cm
rain 24hr
cm
rain mn
cm
humidity
%
barometer
mb
20260906225525 37 48 3.2 4.8 0.00 0.00 0.00 44 1011.0
20260906225021 37 15 1.6 4.8 0.00 0.00 0.00 44 1011.2
20260906224516 37 287 0.0 4.8 0.00 0.00 0.00 44 1011.2
20260906224013 37 158 4.8 6.4 0.00 0.00 0.00 43 1011.1
20260906223508 37 152 3.2 6.4 0.00 0.00 0.00 43 1010.9
20260906223007 37 307 3.2 4.8 0.00 0.00 0.00 44 1011.2
20260906222501 37 158 3.2 4.8 0.00 0.00 0.00 43 1011.2
20260906221959 38 147 1.6 4.8 0.00 0.00 0.00 43 1011.0
20260906221458 37 37 0.0 3.2 0.00 0.00 0.00 43 1011.1
20260906220954 37 156 3.2 6.4 0.00 0.00 0.00 44 1011.1
20260906220449 37 100 3.2 4.8 0.00 0.00 0.00 44 1011.2
20260906215948 40 78 3.2 6.4 0.00 0.00 0.00 41 1011.2
20260906215443 38 126 0.0 4.8 0.00 0.00 0.00 42 1011.2
20260906214941 38 105 3.2 9.7 0.00 0.00 0.00 42 1011.2
20260906214440 37 41 3.2 9.7 0.00 0.00 0.00 43 1010.9
20260906213939 37 28 1.6 3.2 0.00 0.00 0.00 44 1011.1
20260906213434 37 41 1.6 6.4 0.00 0.00 0.00 43 1011.3
20260906212932 38 225 8.0 11.3 0.00 0.00 0.00 42 1011.3
20260906212427 39 352 1.6 6.4 0.00 0.00 0.00 41 1011.4
20260906211928 38 9 0.0 4.8 0.00 0.00 0.00 41 1011.5
20260906211428 37 42 0.0 1.6 0.00 0.00 0.00 43 1011.5
20260906210923 38 264 3.2 3.2 0.00 0.00 0.00 42 1011.6
20260906210419 38 54 3.2 6.4 0.00 0.00 0.00 41 1011.7
20260906205913 38 12 3.2 4.8 0.00 0.00 0.00 43 1011.9
20260906205409 38 85 3.2 6.4 0.00 0.00 0.00 42 1012.0
20260906204904 39 83 1.6 6.4 0.00 0.00 0.00 41 1012.0
20260906204403 37 354 3.2 14.5 0.00 0.00 0.00 43 1012.1
20260906203903 37 186 1.6 4.8 0.00 0.00 0.00 44 1012.0
20260906203358 37 354 1.6 4.8 0.00 0.00 0.00 43 1012.5
20260906202856 37 72 1.6 6.4 0.00 0.00 0.00 43 1012.2
20260906202355 38 30 0.0 4.8 0.00 0.00 0.00 42 1012.2
20260906201855 38 32 1.6 11.3 0.00 0.00 0.00 42 1012.3
20260906201349 38 250 3.2 4.8 0.00 0.00 0.00 42 1012.3
20260906200846 38 144 1.6 4.8 0.00 0.00 0.00 40 1012.4
20260906200342 38 42 0.0 4.8 0.00 0.00 0.00 44 1012.4
20260906195842 37 63 3.2 9.7 0.00 0.00 0.00 43 1012.7
20260906195338 37 101 4.8 9.7 0.00 0.00 0.00 42 1012.6
20260906194834 37 38 0.0 3.2 0.00 0.00 0.00 45 1012.7
20260906194330 37 173 3.2 4.8 0.00 0.00 0.00 43 1012.6
20260906193824 37 343 0.0 6.4 0.00 0.00 0.00 43 1012.8
20260906193320 37 91 3.2 6.4 0.00 0.00 0.00 43 1012.8
20260906192815 38 5 1.6 9.7 0.00 0.00 0.00 43 1012.8
20260906192310 37 45 1.6 3.2 0.00 0.00 0.00 45 1012.9
20260906191809 37 300 1.6 12.9 0.00 0.00 0.00 43 1013.2
20260906191303 38 210 3.2 6.4 0.00 0.00 0.00 42 1013.0
20260906190758 37 42 3.2 4.8 0.00 0.00 0.00 43 1013.2
20260906190257 37 135 3.2 4.8 0.00 0.00 0.00 43 1013.1
20260906185757 37 222 0.0 3.2 0.00 0.00 0.00 45 1013.2
20260906185256 37 106 6.4 11.3 0.00 0.00 0.00 45 1013.3
20260906184751 37 60 1.6 4.8 0.00 0.00 0.00 44 1013.2
20260906184246 37 7 3.2 4.8 0.00 0.00 0.00 45 1013.4
20260906183742 37 352 3.2 6.4 0.00 0.00 0.00 45 1013.3
20260906183238 37 256 6.4 11.3 0.00 0.00 0.00 45 1013.4
20260906182738 36 350 1.6 6.4 0.00 0.00 0.00 46 1013.5
20260906182234 36 150 8.0 11.3 0.00 0.00 0.00 44 1013.8
20260906181729 37 316 3.2 6.4 0.00 0.00 0.00 45 1013.9
20260906181226 37 5 3.2 6.4 0.00 0.00 0.00 46 1013.9
20260906180725 37 352 0.0 3.2 0.00 0.00 0.00 46 1013.8
20260906180220 36 10 3.2 9.7 0.00 0.00 0.00 46 1013.9
20260906175718 36 91 3.2 4.8 0.00 0.00 0.00 48 1014.0
20260906175214 36 202 1.6 3.2 0.00 0.00 0.00 48 1014.2
20260906174712 37 269 6.4 9.7 0.00 0.00 0.00 46 1014.3
20260906174207 36 52 4.8 12.9 0.00 0.00 0.00 46 1014.2
20260906173702 37 174 3.2 9.7 0.00 0.00 0.00 48 1014.4
20260906173157 36 6 1.6 9.7 0.00 0.00 0.00 48 1014.3
20260906172657 36 245 4.8 6.4 0.00 0.00 0.00 48 1014.5
20260906172152 36 111 6.4 12.9 0.00 0.00 0.00 48 1014.6
20260906171652 36 57 3.2 9.7 0.00 0.00 0.00 48 1014.6
20260906171148 36 135 6.4 16.1 0.00 0.00 0.00 48 1014.7
20260906170644 36 63 3.2 6.4 0.00 0.00 0.00 49 1014.7
20260906170143 35 144 3.2 4.8 0.00 0.00 0.00 50 1014.5
20260906165639 35 71 3.2 11.3 0.00 0.00 0.00 50 1014.5
20260906165135 36 37 3.2 4.8 0.00 0.00 0.00 48 1014.7
20260906164633 36 45 1.6 4.8 0.00 0.00 0.00 49 1014.7
20260906164129 36 52 1.6 11.3 0.00 0.00 0.00 48 1014.7
20260906163625 36 82 3.2 4.8 0.00 0.00 0.00 51 1014.7
20260906163121 35 251 0.0 6.4 0.00 0.00 0.00 51 1014.7
20260906162618 35 234 1.6 4.8 0.00 0.00 0.00 50 1014.8
20260906162113 35 60 4.8 9.7 0.00 0.00 0.00 51 1014.7
20260906161613 36 257 3.2 3.2 0.00 0.00 0.00 48 1014.7
20260906161112 36 277 1.6 1.6 0.00 0.00 0.00 51 1014.5
20260906160610 35 28 1.6 4.8 0.00 0.00 0.00 51 1014.7
20260906160109 35 73 1.6 3.2 0.00 0.00 0.00 52 1014.4
20260906155607 35 55 3.2 4.8 0.00 0.00 0.00 53 1014.6
20260906155103 35 202 1.6 3.2 0.00 0.00 0.00 52 1014.6
20260906154559 35 52 1.6 3.2 0.00 0.00 0.00 52 1014.5
20260906154057 35 93 3.2 3.2 0.00 0.00 0.00 54 1014.5
20260906153556 34 117 0.0 4.8 0.00 0.00 0.00 54 1014.5
20260906153052 33 347 1.6 3.2 0.00 0.00 0.00 55 1014.4
20260906152551 34 33 1.6 3.2 0.00 0.00 0.00 54 1014.5
20260906152051 33 126 1.6 3.2 0.00 0.00 0.00 57 1014.5
20260906151546 33 49 0.0 3.2 0.00 0.00 0.00 55 1014.5
20260906151042 33 126 1.6 3.2 0.00 0.00 0.00 56 1014.7
20260906150537 33 344 1.6 4.8 0.00 0.00 0.00 55 1014.6
20260906150032 33 108 0.0 3.2 0.00 0.00 0.00 57 1014.6
20260906145531 33 5 0.0 1.6 0.00 0.00 0.00 58 1014.6
20260906145026 33 17 0.0 0.0 0.00 0.00 0.00 59 1014.4
20260906144520 32 303 1.6 1.6 0.00 0.00 0.00 59 1014.4
20260906144016 33 156 0.0 1.6 0.00 0.00 0.00 59 1014.4
20260906143511 32 268 0.0 1.6 0.00 0.00 0.00 62 1014.4
20260906143008 32 334 0.0 0.0 0.00 0.00 0.00 65 1014.5
20260906142501 31 281 0.0 1.6 0.00 0.00 0.00 67 1014.5
20260906141956 30 353 0.0 1.6 0.00 0.00 0.00 69 1014.7
20260906141455 30 12 1.6 3.2 0.00 0.00 0.00 70 1014.5
20260906140951 30 105 0.0 1.6 0.00 0.00 0.00 72 1014.6
20260906140450 30 337 0.0 1.6 0.00 0.00 0.00 74 1014.5
20260906135949 30 46 1.6 1.6 0.00 0.00 0.00 72 1014.7
20260906135447 30 65 0.0 0.0 0.00 0.00 0.00 72 1014.6
20260906134943 30 344 0.0 0.0 0.00 0.00 0.00 73 1014.5
20260906134439 29 344 0.0 0.0 0.00 0.00 0.00 76 1014.6
20260906133939 28 344 0.0 1.6 0.00 0.00 0.00 78 1014.7
20260906133435 28 344 0.0 0.0 0.00 0.00 0.00 79 1014.6
20260906132930 27 344 0.0 1.6 0.00 0.00 0.00 81 1014.5
20260906132425 27 344 0.0 0.0 0.00 0.00 0.00 82 1014.6
20260906131921 27 344 0.0 1.6 0.00 0.00 0.00 84 1014.6
20260906131416 27 344 0.0 1.6 0.00 0.00 0.00 82 1014.5
20260906130912 26 344 0.0 0.0 0.00 0.00 0.00 84 1014.5
20260906130411 26 344 0.0 0.0 0.00 0.00 0.00 87 1014.5
20260906125911 26 344 0.0 1.6 0.00 0.00 0.00 87 1014.4
20260906125408 25 228 0.0 0.0 0.00 0.00 0.00 88 1014.5
20260906124902 25 228 0.0 0.0 0.00 0.00 0.00 89 1014.5
20260906124359 25 228 0.0 0.0 0.00 0.00 0.00 90 1014.4
20260906123858 24 228 0.0 0.0 0.00 0.00 0.00 91 1014.3
20260906123352 24 228 0.0 0.0 0.00 0.00 0.00 92 1014.3
20260906122852 24 228 0.0 0.0 0.00 0.00 0.00 93 1014.3
20260906122347 23 228 0.0 0.0 0.00 0.00 0.00 93 1014.1
20260906121844 23 228 0.0 0.0 0.00 0.00 0.00 94 1014.2
20260906121339 23 228 0.0 0.0 0.00 0.00 0.00 94 1014.1
20260906120836 23 228 0.0 0.0 0.00 0.00 0.00 93 1014.0
20260906120331 23 228 0.0 0.0 0.00 0.00 0.00 93 1014.0
20260906115827 23 228 0.0 0.0 0.00 0.00 0.00 93 1014.0
20260906115322 24 228 0.0 0.0 0.00 0.00 0.00 93 1014.0
20260906114821 24 228 0.0 0.0 0.00 0.00 0.00 92 1013.9
20260906114317 24 228 0.0 0.0 0.00 0.00 0.00 92 1013.9
20260906113812 24 228 0.0 0.0 0.00 0.00 0.00 92 1013.8
20260906113311 24 228 0.0 0.0 0.00 0.00 0.00 91 1014.0
20260906112807 24 228 0.0 0.0 0.00 0.00 0.00 91 1013.8
20260906112306 24 228 0.0 1.6 0.00 0.00 0.00 91 1013.9
20260906111802 24 78 0.0 1.6 0.00 0.00 0.00 90 1013.9
20260906111301 25 61 0.0 0.0 0.00 0.00 0.00 89 1013.7
20260906110757 25 143 0.0 0.0 0.00 0.00 0.00 89 1013.6
20260906110253 25 215 0.0 1.6 0.00 0.00 0.00 89 1013.7
20260906105752 25 220 0.0 0.0 0.00 0.00 0.00 89 1013.4
20260906105248 25 220 0.0 1.6 0.00 0.00 0.00 88 1013.2
20260906104743 25 206 0.0 0.0 0.00 0.00 0.00 88 1013.4
20260906104241 25 206 0.0 0.0 0.00 0.00 0.00 88 1013.5
20260906103739 25 204 0.0 1.6 0.00 0.00 0.00 87 1013.3
20260906103234 25 240 0.0 1.6 0.00 0.00 0.00 87 1013.0
20260906102729 25 175 0.0 1.6 0.00 0.00 0.00 87 1013.0
20260906102223 25 243 0.0 3.2 0.00 0.00 0.00 86 1013.3
20260906101718 25 201 0.0 1.6 0.00 0.00 0.00 87 1013.3
20260906101213 25 200 0.0 1.6 0.00 0.00 0.00 86 1013.2
20260906100708 25 214 0.0 0.0 0.00 0.00 0.00 86 1013.3
20260906100203 25 209 0.0 1.6 0.00 0.00 0.00 86 1013.1
20260906095703 25 216 0.0 0.0 0.00 0.00 0.00 86 1013.1
20260906095159 25 120 0.0 0.0 0.00 0.00 0.00 86 1013.2
20260906094657 25 215 0.0 0.0 0.00 0.00 0.00 85 1013.1
20260906094153 25 159 0.0 1.6 0.00 0.00 0.00 85 1012.9
20260906093650 25 219 0.0 1.6 0.00 0.00 0.00 85 1013.0
20260906093149 25 233 0.0 1.6 0.00 0.00 0.00 84 1013.2
20260906092645 25 211 0.0 1.6 0.00 0.00 0.00 84 1012.9
20260906092144 26 234 0.0 0.0 0.00 0.00 0.00 84 1012.8
20260906091641 26 163 0.0 1.6 0.00 0.00 0.00 84 1013.1
20260906091137 26 0 0.0 3.2 0.00 0.00 0.00 83 1013.0
20260906090633 26 8 0.0 0.0 0.00 0.00 0.00 83 1012.9
20260906090132 26 218 0.0 1.6 0.00 0.00 0.00 83 1012.9
20260906085632 26 221 3.2 3.2 0.00 0.00 0.00 83 1013.0
20260906085131 26 146 0.0 1.6 0.00 0.00 0.00 82 1013.0
20260906084626 26 190 0.0 3.2 0.00 0.00 0.00 82 1012.7
20260906084125 26 347 0.0 0.0 0.00 0.00 0.00 82 1012.5
20260906083620 26 201 1.6 1.6 0.00 0.00 0.00 81 1012.7
20260906083115 26 199 0.0 1.6 0.00 0.00 0.00 81 1012.6
20260906082611 26 3 0.0 3.2 0.00 0.00 0.00 80 1012.6
20260906082106 26 355 0.0 4.8 0.00 0.00 0.00 80 1012.6
20260906081602 26 214 0.0 1.6 0.00 0.00 0.00 80 1012.7
20260906081057 26 216 1.6 4.8 0.00 0.00 0.00 79 1012.7
20260906080553 26 304 0.0 1.6 0.00 0.00 0.00 79 1012.5
20260906080049 26 8 0.0 0.0 0.00 0.00 0.00 79 1012.5
20260906075549 26 312 0.0 1.6 0.00 0.00 0.00 78 1012.4
20260906075044 26 195 1.6 1.6 0.00 0.00 0.00 78 1012.4
20260906074539 26 174 3.2 3.2 0.00 0.00 0.00 78 1012.6
20260906074037 26 301 0.0 1.6 0.00 0.00 0.00 78 1012.6
20260906073532 27 24 0.0 0.0 0.00 0.00 0.00 78 1012.6
20260906073029 27 219 0.0 3.2 0.00 0.00 0.00 77 1012.6
20260906072523 27 188 0.0 3.2 0.00 0.00 0.00 77 1012.6
20260906072020 27 246 0.0 4.8 0.00 0.00 0.00 77 1012.6
20260906071515 27 293 1.6 3.2 0.00 0.00 0.00 77 1012.7
20260906071010 27 302 3.2 3.2 0.00 0.00 0.00 76 1012.9
20260906070507 27 298 3.2 4.8 0.00 0.00 0.00 76 1012.8
20260906070002 27 264 3.2 4.8 0.00 0.00 0.00 76 1012.7
20260906065501 27 246 0.0 1.6 0.00 0.00 0.00 76 1012.9
20260906064957 27 148 1.6 4.8 0.00 0.00 0.00 75 1012.8
20260906064453 27 356 1.6 3.2 0.00 0.00 0.00 75 1013.0
20260906063948 27 86 0.0 3.2 0.00 0.00 0.00 75 1013.0
20260906063443 27 72 0.0 6.4 0.00 0.00 0.00 75 1012.9
20260906062943 27 62 0.0 4.8 0.00 0.00 0.00 75 1013.2
20260906062438 27 198 0.0 1.6 0.00 0.00 0.00 75 1012.9
20260906061933 27 245 1.6 1.6 0.00 0.00 0.00 75 1012.6
20260906061429 27 145 1.6 1.6 0.00 0.00 0.00 75 1012.6
20260906060923 27 223 0.0 3.2 0.00 0.00 0.00 75 1012.9
20260906060421 27 61 0.0 1.6 0.00 0.00 0.00 75 1012.9
20260906055917 27 203 1.6 3.2 0.00 0.00 0.00 74 1012.9
20260906055413 28 252 0.0 4.8 0.00 0.00 0.00 74 1013.0
20260906054908 28 332 1.6 4.8 0.00 0.00 0.00 74 1012.8
20260906054402 28 262 1.6 3.2 0.00 0.00 0.00 73 1012.9
20260906053858 28 246 0.0 3.2 0.00 0.00 0.00 73 1013.1
20260906053354 28 272 0.0 1.6 0.00 0.00 0.00 73 1012.8
20260906052850 28 271 0.0 3.2 0.00 0.00 0.00 73 1012.9
20260906052346 28 247 1.6 3.2 0.00 0.00 0.00 73 1013.0
20260906051843 28 224 1.6 3.2 0.00 0.00 0.00 72 1013.0
20260906051342 28 285 0.0 1.6 0.00 0.00 0.00 72 1012.9
20260906050838 28 309 0.0 0.0 0.00 0.00 0.00 72 1013.0
20260906050333 28 130 1.6 4.8 0.00 0.00 0.00 72 1012.9
20260906045831 28 240 1.6 4.8 0.00 0.00 0.00 71 1013.0
20260906045326 28 264 0.0 3.2 0.00 0.00 0.00 71 1012.9
20260906044823 28 34 1.6 6.4 0.00 0.00 0.00 71 1013.0
20260906044323 28 140 3.2 4.8 0.00 0.00 0.00 71 1013.2
20260906043819 28 174 1.6 4.8 0.00 0.00 0.00 70 1013.2
20260906043315 28 317 1.6 4.8 0.00 0.00 0.00 70 1013.2
20260906042814 28 178 1.6 3.2 0.00 0.00 0.00 69 1012.9
20260906042313 28 196 3.2 3.2 0.00 0.00 0.00 69 1013.1
20260906041809 29 35 1.6 3.2 0.00 0.00 0.00 69 1012.9
20260906041304 29 63 3.2 4.8 0.00 0.00 0.00 68 1013.0
20260906040759 29 269 1.6 4.8 0.00 0.00 0.00 67 1013.0
20260906040254 29 216 3.2 6.4 0.00 0.00 0.00 67 1012.9
20260906035749 29 341 0.0 4.8 0.00 0.00 0.00 66 1012.9
20260906035246 29 240 1.6 3.2 0.00 0.00 0.00 66 1012.9
20260906034746 29 27 3.2 4.8 0.00 0.00 0.00 65 1012.9
20260906034240 30 348 1.6 4.8 0.00 0.00 0.00 65 1012.9
20260906033736 30 91 1.6 3.2 0.00 0.00 0.00 65 1012.7
20260906033236 30 327 0.0 4.8 0.00 0.00 0.00 64 1012.9
20260906032733 30 250 3.2 4.8 0.00 0.00 0.00 64 1012.9
20260906032232 30 198 3.2 9.7 0.00 0.00 0.00 63 1012.8
20260906031727 30 200 3.2 6.4 0.00 0.00 0.00 63 1012.9
20260906031224 30 118 0.0 3.2 0.00 0.00 0.00 62 1013.1
20260906030723 30 67 1.6 4.8 0.00 0.00 0.00 62 1013.1
20260906030218 30 321 3.2 3.2 0.00 0.00 0.00 62 1013.1
20260906025717 30 0 0.0 4.8 0.00 0.00 0.00 62 1013.1
20260906025212 30 258 4.8 9.7 0.00 0.00 0.00 61 1013.0
20260906024711 30 193 6.4 6.4 0.00 0.00 0.00 61 1012.9
20260906024210 30 178 0.0 4.8 0.00 0.00 0.00 61 1012.8
20260906023706 30 88 0.0 6.4 0.00 0.00 0.00 61 1012.8
20260906023201 31 255 3.2 11.3 0.00 0.00 0.00 61 1012.5
20260906022656 31 199 1.6 4.8 0.00 0.00 0.00 61 1012.5
20260906022152 31 238 3.2 9.7 0.00 0.00 0.00 61 1012.4
20260906021648 31 234 1.6 3.2 0.00 0.00 0.00 60 1012.4
20260906021146 31 342 1.6 3.2 0.00 0.00 0.00 60 1012.2
20260906020641 31 283 1.6 9.7 0.00 0.00 0.00 60 1012.1
20260906020136 31 184 1.6 6.4 0.00 0.00 0.00 59 1011.9
20260906015635 31 186 4.8 9.7 0.00 0.00 0.00 59 1012.0
20260906015135 31 80 6.4 12.9 0.00 0.00 0.00 58 1012.1
20260906014634 31 73 1.6 9.7 0.00 0.00 0.00 58 1012.1
20260906014131 31 215 4.8 9.7 0.00 0.00 0.00 58 1012.0
20260906013626 32 4 3.2 9.7 0.00 0.00 0.00 58 1011.7
20260906013122 32 220 3.2 9.7 0.00 0.00 0.00 58 1011.7
20260906012616 32 181 6.4 12.9 0.00 0.00 0.00 57 1011.9
20260906012116 32 92 3.2 9.7 0.00 0.00 0.00 55 1011.7
20260906011613 33 43 6.4 16.1 0.00 0.00 0.00 52 1011.5
20260906011112 33 133 1.6 3.2 0.00 0.00 0.00 49 1011.4
20260906010608 33 179 0.0 1.6 0.00 0.00 0.00 49 1011.2
20260906010104 33 202 0.0 3.2 0.00 0.00 0.00 48 1011.2
20260906005603 34 196 1.6 3.2 0.00 0.00 0.00 48 1011.1
20260906005103 34 271 0.0 1.6 0.00 0.00 0.00 48 1011.1
20260906004602 34 99 0.0 4.8 0.00 0.00 0.00 47 1011.1
20260906004057 34 213 0.0 3.2 0.00 0.00 0.00 47 1010.9
20260906003552 35 55 0.0 1.6 0.00 0.00 0.00 47 1011.2
20260906003048 35 190 0.0 3.2 0.00 0.00 0.00 47 1011.0
20260906002543 35 128 1.6 3.2 0.00 0.00 0.00 47 1011.1
20260906002037 35 226 1.6 1.6 0.00 0.00 0.00 46 1011.2
20260906001527 35 240 0.0 1.6 0.00 0.00 0.00 46 1011.0
20260906001027 35 8 0.0 4.8 0.00 0.00 0.00 45 1010.8
20260906000523 35 113 1.6 3.2 0.00 0.00 0.00 45 1010.9
20260906000018 35 100 1.6 3.2 0.00 0.00 0.00 45 1011.1
20260905235517 36 357 0.0 3.2 0.00 0.00 0.00 45 1010.8
20260905235013 36 62 1.6 3.2 0.00 0.00 0.00 44 1010.8
20260905234509 36 135 3.2 4.8 0.00 0.00 0.00 44 1010.9
20260905234009 36 113 0.0 1.6 0.00 0.00 0.00 44 1010.8
20260905233503 36 99 3.2 4.8 0.00 0.00 0.00 43 1010.7
20260905233003 37 177 4.8 9.7 0.00 0.00 0.00 42 1010.9
20260905232458 36 143 1.6 3.2 0.00 0.00 0.00 43 1010.8
20260905231954 37 70 0.0 3.2 0.00 0.00 0.00 42 1010.9
20260905231450 37 232 0.0 0.0 0.00 0.00 0.00 41 1010.9
20260905230946 37 282 0.0 1.6 0.00 0.00 0.00 42 1010.7
20260905230444 36 111 1.6 1.6 0.00 0.00 0.00 43 1010.7
20260905225943 36 164 1.6 3.2 0.00 0.00 0.00 44 1010.8